Flag for U.S.A. Weather past 2 weeks in Port Angeles, Washington, U.S.A.

Now
71 °F

Sunny.


Feels Like: 77 °F
Forecast: 58 / 80 °F
Wind: No wind

Location: William R. Fairchild International Airport

Current Time: Jul 4, 2015 at 5:36:44 PM

Latest Report: Jul 4, 2015 at 4:53 PM


Visibility: 10 mi

Pressure: 29.82 "Hg

Humidity: 55%

Dew point: 54 °F

Location of Port AngelesLocation

Historic Weather in Port Angeles — Graph

°F

Port Angeles temperature yesterday

Maximum temperature yesterday: 82 °F (at 3:53 PM)
Minimum temperature yesterday: 54 °F (at 4:53 AM)
Average temperature yesterday: 66 °F

Past Weeks' High & Low Weather Summary

 TemperatureHumidityPressure
High90 °F (Jun 27, 2:53 PM)97% (Jun 26, 3:59 AM)30.18 "Hg (Jun 26, 3:59 AM)
Low47 °F (Jun 21, 2:53 AM)25% (Jun 27, 2:53 PM)29.83 "Hg (Jul 4, 3:53 PM)
Average64 °F67%30.03 "Hg
* Reported Jun 19 3:53 PM — Jul 4 3:53 PM, Port Angeles, Weather by CustomWeather, © 2015

Note: Actual official high and low records may vary slightly from our data, if they occured in-between our weather recording intervals... More about our weather records

Advertising

Port Angeles weather history for previous 24 hours

 ConditionsComfort  
Time TempWeatherWind HumidityBarometerVisibility
3:53 PM
Sat, Jul 4
75 °FSunny.5 mph48%29.83 "Hg10 mi
2:53 PM78 °FSunny.6 mph40%29.85 "Hg10 mi
1:53 PM77 °FSunny.5 mph36%29.86 "Hg10 mi
12:53 PM72 °FSunny.5 mph48%29.87 "Hg10 mi
11:53 AM72 °FSunny.6 mph46%29.88 "Hg10 mi
10:53 AM72 °FSunny.6 mph46%29.88 "Hg10 mi
9:53 AM65 °FSunny.3 mph66%29.90 "Hg10 mi
8:53 AM66 °FSunny.3 mph65%29.88 "Hg10 mi
7:53 AM66 °FSunny.No wind65%29.89 "Hg10 mi
6:53 AM61 °FSunny.No wind78%29.88 "Hg10 mi
5:53 AM53 °FClear.No wind96%29.88 "Hg10 mi
4:53 AM55 °FClear.No wind87%29.88 "Hg10 mi
3:53 AM54 °FClear.5 mph90%29.87 "Hg10 mi
2:53 AM57 °FClear.No wind87%29.86 "Hg10 mi
1:53 AM58 °FClear.No wind84%29.87 "Hg10 mi
12:53 AM58 °FClear.3 mph87%29.87 "Hg10 mi
11:53 PM
Fri, Jul 3
59 °FClear.No wind84%29.88 "Hg10 mi
10:53 PM59 °FClear.No wind81%29.87 "Hg10 mi
9:53 PM61 °FSunny.No wind75%29.87 "Hg10 mi
8:53 PM66 °FSunny.No wind65%29.87 "Hg10 mi
7:53 PM71 °FSunny.5 mph55%29.86 "Hg10 mi
6:53 PM70 °FSunny.3 mph55%29.88 "Hg10 mi
5:53 PM71 °FSunny.8 mph53%29.89 "Hg10 mi
Weather by CustomWeather, © 2015

See weather overviewHow to use our weather pages